This is the latest recevied weather packets stored in our database for station/object KC1IUC-13. If no packets are shown the sender has not sent any weather packets the latest 10 day(s).
| Time | Temp. | Humidity | Pressure | Rain* | Wind** | Luminosity | Snow |
|---|---|---|---|---|---|---|---|
| 1777377244 | 8.89° C | 76% | 1018.3 hPa | 0 mm | - | 62 W/m² | - |
| 1777376704 | 8.89° C | 75% | 1018.6 hPa | 0 mm | - | 52 W/m² | - |
| 1777376164 | 7.78° C | 75% | 1018.6 hPa | 0 mm | - | 41 W/m² | - |
| 1777375624 | 8.33° C | 74% | 1018.6 hPa | 0 mm | - | 41 W/m² | - |
| 1777375084 | 7.78° C | 75% | 1018.6 hPa | 0 mm | - | 28 W/m² | - |
| 1777374544 | 6.67° C | 75% | 1018.3 hPa | 0 mm | - | 25 W/m² | - |
| 1777374004 | 6.11° C | 75% | 1018.3 hPa | 0 mm | - | 21 W/m² | - |
| 1777373644 | 5.56° C | 75% | 1018.3 hPa | 0 mm | - | 19 W/m² | - |
| 1777373104 | 4.44° C | 75% | 1018.3 hPa | 0 mm | - | 16 W/m² | - |
| 1777372564 | 3.89° C | 75% | 1018.3 hPa | 0 mm | - | 13 W/m² | - |
| 1777372024 | 3.33° C | 75% | 1018.3 hPa | 0 mm | - | 10 W/m² | - |
| 1777371484 | 2.78° C | 74% | 1018.3 hPa | 0 mm | - | 8 W/m² | - |
| 1777370944 | 2.78° C | 74% | 1018.3 hPa | 0 mm | - | 5 W/m² | - |
| 1777370404 | 2.78° C | 74% | 1018.3 hPa | 0 mm | - | 2 W/m² | - |
| 1777370044 | 3.33° C | 74% | 1018.3 hPa | 0 mm | - | 1 W/m² | - |
| 1777369504 | 3.33° C | 74% | 1018.3 hPa | 0 mm | - | 0 W/m² | - |
| 1777368964 | 3.33° C | 74% | 1018.3 hPa | 0 mm | - | 0 W/m² | - |
| 1777368424 | 3.33° C | 73% | 1018.3 hPa | 0 mm | - | 0 W/m² | - |
| 1777367884 | 3.33° C | 73% | 1018.6 hPa | 0 mm | - | 0 W/m² | - |
| 1777367344 | 3.33° C | 73% | 1018.6 hPa | 0 mm | - | 0 W/m² | - |
| 1777366804 | 3.33° C | 73% | 1018.6 hPa | 0 mm | - | 0 W/m² | - |
| 1777366444 | 3.33° C | 72% | 1018.6 hPa | 0 mm | - | 0 W/m² | - |
| 1777365904 | 3.33° C | 72% | 1019 hPa | 0 mm | - | 0 W/m² | - |
| 1777365364 | 3.33° C | 71% | 1018.6 hPa | 0 mm | - | 0 W/m² | - |
| 1777364824 | 3.33° C | 71% | 1018.6 hPa | 0 mm | - | 0 W/m² | - |
* Rain latest hour (hover to see other rain measurements)
** Current wind speed in m/s (hover to see current wind gust speed)